Probability
32 36 42 44 41 37 31 24 19 18 16 11 6 4 4 5 6 8 9 9 9 10 9 5 2 1 0 0 0 0 0 0 1 0 0 0 0 0 0 0 0 0 0
39 40 43 44 42 39 34 27 22 19 17 13 9 7 6 6 7 7 9 9 9 8 8 6 3 2 1 0 0 0 0 0 1 1 0 0 0 0 0 0 0 0 0
44 44 44 44 44 42 38 32 25 21 19 17 14 11 9 8 7 6 7 9 8 7 7 7 5 3 2 1 0 0 0 0 1 1 0 0 0 0 0 0 0 0 0
43 43 44 45 46 44 40 35 29 23 21 20 18 14 12 9 7 6 6 8 9 9 8 8 7 6 5 3 1 1 1 1 1 1 0 0 0 0 0 0 0 0 0
40 43 44 45 46 45 40 36 31 25 22 21 20 17 13 10 9 7 6 8 10 10 10 10 9 8 7 6 3 2 2 2 1 0 0 0 0 0 0 0 0 0 0
41 43 45 45 46 46 41 36 32 26 22 22 21 17 13 11 11 10 8 9 10 11 11 11 10 9 8 7 5 4 5 4 2 0 0 0 0 0 1 1 0 0 0
42 44 46 46 46 46 43 38 33 27 22 21 20 17 14 13 13 11 10 9 10 10 11 11 9 9 9 8 8 7 7 5 1 0 0 0 0 0 1 1 0 0 0
43 44 45 47 48 47 44 39 35 29 24 21 20 17 16 15 13 10 10 10 10 10 10 10 8 8 9 9 9 9 8 4 1 0 0 0 0 1 1 1 0 0 0
44 45 45 46 47 45 42 39 35 31 27 22 19 17 17 16 13 10 9 9 9 10 10 9 9 8 9 10 10 9 7 2 0 0 0 0 1 1 1 0 0 0 0
44 45 45 44 43 42 39 36 33 29 26 22 17 15 15 15 12 9 8 8 9 10 10 10 9 9 9 9 9 8 5 2 0 0 0 0 2 3 2 1 0 0 0
41 42 42 41 37 36 35 32 27 23 20 17 14 13 13 13 10 8 6 7 9 10 10 10 10 9 8 8 8 6 3 1 0 0 0 1 4 5 3 1 0 0 0
37 37 37 36 33 31 30 28 23 19 16 13 13 13 12 11 9 7 6 6 7 8 8 9 9 9 8 7 6 4 2 1 0 0 0 2 5 6 3 1 0 0 0
33 33 33 31 29 27 27 25 21 19 17 13 12 12 11 10 9 8 6 5 5 6 7 8 8 8 7 6 5 4 2 1 0 0 0 2 5 6 3 1 0 0 0
30 30 29 28 26 24 25 24 22 21 19 15 12 11 10 10 10 9 7 5 6 6 8 9 9 8 6 5 4 3 1 0 0 0 1 3 6 6 4 1 0 0 0
26 26 26 25 22 20 22 23 22 21 19 16 12 10 10 10 10 9 7 7 8 8 8 9 9 9 7 4 3 2 1 0 1 1 1 2 5 6 5 3 1 1 0
23 22 22 21 18 17 20 21 22 20 17 14 11 10 10 9 9 8 7 7 8 9 9 9 10 9 8 5 3 2 1 1 2 2 1 1 3 5 6 4 2 1 0
20 18 18 18 15 14 16 18 19 18 14 11 9 9 9 8 7 6 6 7 8 9 10 10 10 10 9 6 3 1 0 1 3 2 1 0 1 2 3 3 2 1 0
17 15 15 16 13 11 12 15 16 15 13 9 8 7 7 6 5 4 5 6 7 9 10 10 11 11 9 6 3 1 1 2 3 2 1 0 0 0 1 1 1 1 1
13 13 13 13 12 10 10 12 13 13 10 8 7 6 6 6 4 3 4 6 7 8 9 8 9 9 7 5 3 2 2 3 3 2 1 0 0 0 0 0 1 1 1
11 11 11 10 10 9 9 9 10 10 8 7 6 6 6 5 4 3 4 6 7 7 6 5 5 5 5 4 3 3 3 3 3 3 1 1 1 0 0 0 0 0 1
11 11 9 8 10 10 8 7 8 8 7 6 6 6 5 4 3 3 4 4 4 3 3 3 2 2 3 3 3 3 3 3 3 3 3 2 2 1 0 0 0 0 1
11 11 9 7 8 9 8 6 7 7 7 6 6 6 4 3 2 2 2 2 1 1 1 2 1 1 2 3 3 3 3 3 2 2 3 3 3 2 0 0 0 0 0
11 10 9 7 7 7 7 6 6 6 6 6 6 5 3 1 1 1 1 0 0 0 0 0 0 1 2 3 3 3 2 1 1 1 1 2 2 1 0 0 0 0 0
9 9 7 6 6 6 5 6 5 5 5 6 6 5 2 0 0 0 0 0 0 0 0 0 0 0 1 2 2 2 1 0 0 0 0 1 1 0 0 0 0 0 0
7 6 5 4 5 6 6 5 5 4 4 5 6 4 1 0 0 0 0 0 0 0 0 0 0 0 0 1 1 1 0 0 0 0 0 0 0 0 0 0 0 0 0
6 6 4 4 5 6 6 6 5 4 4 4 4 3 1 0 0 0 0 0 0 0 0 0 0 0 0 0 1 0 0 0 0 0 0 0 0 0 0 0 0 0 0
Wind_Speed
8 11 12 12 11 11 10 10 10 10 9 9 9 10 10 10 11 11 11 11 11 11 11 11 11 11 11 11 11 11 11 10 11 11 12 12 12 12 12 12 11 8 12
11 13 13 11 11 11 10 10 10 9 9 10 9 10 10 10 10 10 10 10 10 10 11 11 11 11 11 11 11 10 10 9 9 10 11 11 11 12 12 11 11 8 11
12 13 12 11 10 10 10 10 9 9 9 10 9 9 10 10 10 10 10 10 10 10 10 10 10 11 10 10 10 9 8 8 8 7 7 5 8 11 12 12 11 11 11
11 12 11 11 10 10 10 9 9 9 9 9 9 9 9 10 9 9 9 9 10 10 10 10 10 10 10 10 9 8 8 7 6 6 4 5 6 10 11 11 11 11 10
9 11 11 11 10 10 10 10 9 9 9 9 9 9 9 9 9 9 9 10 10 10 9 9 9 9 9 9 8 8 7 6 6 5 5 6 5 9 10 10 10 10 10
8 10 11 11 11 10 10 10 9 9 9 9 9 9 9 8 9 9 9 9 9 9 9 9 9 10 9 9 8 7 6 5 4 4 5 6 5 8 9 9 9 9 9
8 9 12 11 11 10 10 10 9 9 9 9 8 8 8 8 8 9 9 9 9 9 9 9 9 9 9 8 7 6 6 5 3 4 5 5 5 8 9 8 8 8 9
7 8 10 11 10 9 9 9 9 9 9 8 8 8 8 9 8 8 9 9 9 9 8 8 8 8 8 8 6 5 5 4 3 4 5 4 7 8 8 8 8 8 8
7 8 8 8 9 9 8 8 8 8 8 8 8 8 8 8 8 8 8 9 9 8 8 8 8 7 8 7 6 4 4 3 2 2 5 4 6 7 7 7 8 8 8
5 6 6 7 7 7 7 8 8 8 8 8 8 8 8 7 7 7 7 7 8 8 8 7 8 7 7 6 4 2 2 2 2 3 4 4 7 7 7 7 7 7 8
4 4 5 6 6 6 6 8 8 8 8 8 7 7 6 4 4 4 6 6 7 7 7 7 7 6 5 4 3 1 1 1 2 3 3 5 6 6 6 6 7 7 7
4 4 4 4 5 5 5 6 5 5 6 5 5 5 3 3 3 4 5 6 6 6 6 6 5 5 3 2 1 1 0 1 2 3 3 6 6 6 5 5 6 6 6
4 4 4 3 5 5 4 4 3 3 3 4 5 4 3 3 3 3 3 3 3 4 3 3 3 2 2 2 2 1 1 1 2 3 3 6 6 6 5 5 5 5 5
3 3 4 4 4 4 4 4 4 3 3 3 4 4 3 3 3 3 2 2 2 2 2 2 2 2 2 2 2 2 2 1 2 2 3 6 6 5 5 5 5 5 5
2 2 3 4 3 3 3 3 3 3 3 3 3 4 4 3 3 3 2 2 2 2 2 2 2 2 2 2 2 2 2 2 3 3 3 6 6 5 4 4 4 5 5
2 2 2 4 3 3 3 3 3 3 3 3 3 4 4 3 3 3 2 2 2 2 2 2 2 2 2 2 2 2 2 2 2 3 3 4 5 5 4 4 4 4 5
2 2 2 3 4 3 3 3 3 3 3 2 2 3 4 3 3 3 3 2 2 2 2 1 2 2 2 2 2 2 2 2 2 2 3 3 3 4 4 3 3 4 5
2 2 2 2 3 3 2 2 2 3 4 3 2 2 3 3 3 3 3 2 2 2 1 2 2 2 2 2 1 1 1 1 2 2 2 3 2 2 2 3 3 3 4
3 3 2 2 3 3 2 2 2 3 3 3 3 2 2 2 3 3 3 3 3 2 1 1 2 2 2 2 1 1 1 1 1 1 2 3 3 2 2 2 1 2 4
3 3 3 3 2 3 3 2 1 3 3 2 2 2 2 2 2 2 3 3 3 2 2 1 1 2 2 2 2 1 1 1 1 1 2 2 2 2 2 2 1 0 2
3 3 3 3 2 2 3 2 2 2 2 2 2 3 3 2 2 3 3 3 3 3 3 3 2 3 2 2 2 1 1 0 1 1 1 2 2 2 2 1 1 1 0
3 4 4 3 3 2 2 2 2 2 2 2 2 2 3 3 2 3 3 3 3 3 3 3 3 2 2 2 2 2 1 1 1 0 1 1 1 1 1 1 1 1 1
3 4 3 3 3 2 2 3 2 2 2 1 2 2 2 3 3 3 3 3 4 4 3 3 3 3 3 1 2 3 3 2 0 1 1 1 1 1 1 1 1 1 1
3 3 3 3 3 3 3 3 5 3 2 2 2 2 2 2 3 3 3 3 3 4 4 3 2 2 3 3 1 1 2 3 2 0 1 1 0 0 0 0 0 0 0
2 3 3 4 3 3 3 3 4 3 2 1 2 3 2 2 2 2 3 3 3 3 4 4 3 2 2 3 2 1 1 1 1 2 1 1 1 1 1 1 1 0 0
2 2 3 4 3 3 3 3 3 3 3 3 2 2 2 1 1 2 2 2 3 3 4 4 3 3 2 2 2 2 2 2 2 2 2 1 1 1 1 1 0 0 0
Wind_Direction
128 138 140 137 136 134 132 130 125 121 117 115 118 115 111 108 103 100 99 99 99 99 98 96 95 93 90 88 85 83 81 82 83 82 80 79 77 76 70 64 65 63 66
133 139 140 135 137 136 135 133 128 125 121 119 118 120 116 111 107 104 102 102 102 102 101 99 96 93 91 90 88 86 85 86 90 90 85 80 78 76 72 67 66 66 64
129 137 139 135 136 135 133 131 132 130 126 122 122 121 121 117 113 110 107 105 106 105 104 101 99 96 92 91 90 88 86 86 86 81 82 85 77 74 72 69 68 65 63
131 138 142 137 137 136 135 133 136 136 132 129 127 124 123 123 120 116 113 110 106 106 104 101 101 98 95 94 93 90 88 84 74 67 78 77 75 76 72 69 66 63 61
131 138 141 139 140 138 136 135 136 138 136 135 131 128 125 127 125 118 115 113 108 106 106 103 102 100 98 95 93 91 88 79 64 68 75 76 71 76 73 67 63 60 57
129 137 141 142 141 139 138 138 138 138 136 134 132 129 129 126 126 121 117 114 112 108 109 109 105 101 98 95 93 90 80 67 60 73 69 73 71 75 75 70 64 60 56
126 133 143 143 143 141 139 139 138 140 139 135 131 129 129 126 123 125 121 117 114 113 111 108 109 106 102 98 93 89 78 47 82 76 74 75 72 74 73 68 64 59 55
126 129 141 144 143 140 139 138 138 140 139 136 133 129 124 122 122 125 124 120 117 116 115 109 103 109 107 103 95 85 67 44 71 85 85 81 80 77 71 64 59 56 55
123 130 138 147 146 141 139 138 138 136 136 134 130 125 122 120 120 120 126 123 119 116 113 112 106 111 111 107 99 81 56 37 43 69 87 79 80 79 73 67 61 57 53
116 128 143 147 149 152 146 141 133 131 128 126 123 120 118 120 121 119 120 124 120 118 117 114 114 108 112 114 107 79 38 22 59 65 75 82 81 81 74 69 62 57 52
122 128 145 149 149 148 151 140 132 131 130 124 123 126 125 128 124 119 115 122 123 124 125 122 124 122 117 121 127 111 43 90 80 70 74 88 89 84 74 67 61 54 49
152 148 146 154 148 150 153 142 145 145 143 144 142 145 145 123 114 114 113 120 126 129 135 140 145 148 149 139 145 115 76 94 94 81 75 86 89 86 76 65 57 49 43
165 154 143 148 148 149 148 150 147 145 148 147 146 150 136 124 128 126 128 129 139 148 149 155 159 163 140 124 128 121 79 65 82 83 79 87 85 83 76 65 55 46 38
160 158 146 141 144 148 148 148 148 148 150 151 153 150 142 141 140 145 150 156 160 163 155 164 164 144 132 126 128 122 105 96 93 96 90 90 85 79 71 65 57 46 37
159 140 151 135 132 144 146 150 146 148 150 148 149 148 144 147 152 149 154 160 160 157 166 162 151 137 124 113 118 119 119 110 108 109 103 96 89 76 67 59 53 46 38
159 141 136 138 134 140 144 148 147 142 138 136 144 155 151 153 153 153 155 157 155 158 157 152 148 134 124 118 121 126 127 114 110 116 128 111 96 85 70 59 47 38 31
164 153 131 150 138 134 146 154 146 140 134 134 146 151 148 150 156 156 154 155 159 155 137 133 135 128 131 130 135 133 126 112 111 120 129 132 126 104 87 66 47 35 25
150 136 127 144 138 130 152 154 153 139 134 137 141 139 138 144 154 153 156 156 150 141 140 140 146 140 140 139 139 140 135 123 108 127 124 122 121 121 113 82 49 31 22
149 139 126 126 138 139 130 129 141 135 132 140 135 135 141 142 148 150 157 155 144 140 152 159 150 152 143 133 133 132 137 137 137 137 133 130 127 127 135 122 65 30 13
140 133 131 120 134 136 116 106 127 120 125 132 134 142 147 148 151 145 155 154 146 144 158 153 152 141 136 142 124 103 133 146 146 160 156 140 142 143 130 130 122 45 3
140 139 143 136 139 140 139 145 162 152 144 138 142 148 153 150 150 153 149 148 148 156 167 160 141 136 127 124 102 85 2 37 132 131 135 141 140 143 142 135 120 100 2
160 163 149 144 150 159 165 157 161 158 151 149 140 144 156 160 165 165 151 153 150 145 161 163 146 149 157 152 139 133 107 336 336 316 128 135 147 140 146 142 130 108 81
174 168 154 152 150 149 148 128 117 106 113 123 147 172 171 165 164 160 155 153 153 152 161 168 161 162 170 200 153 145 151 195 260 310 248 156 144 146 169 141 132 133 127
175 158 153 151 145 146 152 147 146 156 163 190 180 178 175 166 162 162 157 154 163 160 159 168 168 165 165 178 191 146 152 153 142 209 301 285 200 191 190 207 112 215 156
148 154 158 152 151 151 154 155 157 159 151 147 161 167 166 161 163 162 157 160 171 167 161 163 161 162 179 174 172 163 137 118 125 151 225 271 303 270 230 209 172 201 82
129 139 151 149 154 159 155 163 164 156 151 154 167 162 170 170 174 171 158 162 177 173 165 166 161 162 175 179 171 159 151 159 175 156 186 220 250 272 278 255 191 192 111